Precipitable_Water
0.93 0.97 0.95 1.02 1.20 1.39 1.44 1.51 1.46 1.50 1.49 1.46 1.40 1.34 1.29 1.36 1.39 1.42 1.44 1.44 1.44 1.40 1.35 1.33 1.32 1.33 1.26 1.25 1.26 1.24 1.19 1.19 1.21 1.13 1.10 1.09 1.15 1.13 1.01 0.98 0.97 0.99 1.04
0.89 0.91 0.93 0.96 1.01 1.19 1.26 1.35 1.41 1.44 1.48 1.49 1.47 1.43 1.35 1.33 1.34 1.39 1.36 1.37 1.37 1.37 1.32 1.28 1.28 1.31 1.26 1.23 1.23 1.21 1.15 1.13 1.11 0.98 0.97 0.82 0.84 0.87 0.89 0.99 0.97 0.95 0.97
0.84 0.90 0.88 0.93 0.93 1.05 1.10 1.14 1.23 1.38 1.37 1.41 1.41 1.35 1.32 1.27 1.21 1.23 1.23 1.22 1.20 1.23 1.23 1.21 1.19 1.17 1.16 1.09 1.11 1.12 1.08 0.95 1.07 1.07 0.98 0.78 0.68 0.83 0.95 0.93 0.89 0.91 0.90
0.83 0.90 0.88 0.86 0.89 0.91 1.04 1.01 0.96 1.03 1.10 1.18 1.18 1.16 1.11 1.04 1.10 1.08 1.09 0.99 0.98 0.95 0.95 0.96 0.97 0.99 1.03 1.00 1.01 1.04 1.01 0.98 0.88 0.96 0.99 1.05 1.00 0.78 0.67 0.84 0.85 0.92 0.92
0.82 0.86 0.89 0.85 0.87 0.91 0.89 0.87 0.87 0.87 0.89 0.92 0.94 0.92 0.87 0.83 0.81 0.76 0.74 0.74 0.77 0.78 0.78 0.78 0.78 0.78 0.80 0.84 0.84 0.83 0.85 0.91 0.89 0.86 0.88 0.86 0.90 0.93 0.83 0.71 0.79 0.92 0.96
0.78 0.86 0.90 0.86 0.86 0.90 0.89 0.89 0.86 0.86 0.88 0.88 0.87 0.82 0.77 0.75 0.73 0.75 0.74 0.75 0.78 0.78 0.76 0.75 0.75 0.77 0.77 0.78 0.79 0.81 0.82 0.85 0.85 0.87 0.94 0.88 0.82 0.86 0.85 0.82 0.79 0.81 0.84
0.73 0.84 0.82 0.83 0.84 0.86 0.86 0.88 0.89 0.89 0.91 0.90 0.88 0.86 0.83 0.80 0.77 0.77 0.77 0.77 0.77 0.77 0.75 0.76 0.75 0.74 0.74 0.75 0.77 0.78 0.80 0.84 0.85 0.87 0.89 0.93 0.93 0.99 0.98 0.80 0.81 0.75 0.82
0.71 0.84 0.84 0.82 0.84 0.85 0.86 0.86 0.88 0.88 0.91 0.91 0.88 0.87 0.86 0.82 0.79 0.78 0.76 0.75 0.75 0.75 0.76 0.76 0.76 0.75 0.75 0.76 0.77 0.79 0.82 0.85 0.82 0.83 0.89 0.91 0.92 0.98 0.88 0.91 0.79 0.66 0.66
0.64 0.75 0.86 0.84 0.85 0.87 0.85 0.87 0.88 0.88 0.87 0.88 0.87 0.86 0.86 0.84 0.79 0.77 0.77 0.74 0.73 0.73 0.73 0.73 0.72 0.71 0.71 0.71 0.72 0.74 0.75 0.78 0.76 0.78 0.81 0.81 0.84 0.86 0.89 0.84 0.80 0.65 0.51
0.54 0.63 0.80 0.85 0.89 0.91 0.90 0.88 0.89 0.87 0.87 0.87 0.87 0.85 0.82 0.80 0.78 0.77 0.74 0.73 0.72 0.72 0.71 0.70 0.69 0.68 0.68 0.68 0.68 0.69 0.70 0.69 0.70 0.72 0.72 0.74 0.78 0.77 0.79 0.75 0.72 0.68 0.62
0.47 0.53 0.61 0.72 0.87 0.92 0.93 0.88 0.87 0.86 0.84 0.84 0.84 0.82 0.80 0.79 0.78 0.75 0.74 0.74 0.73 0.72 0.69 0.67 0.66 0.65 0.65 0.65 0.63 0.64 0.64 0.64 0.65 0.69 0.70 0.69 0.73 0.69 0.68 0.67 0.65 0.66 0.66
0.46 0.49 0.56 0.63 0.67 0.77 0.83 0.86 0.87 0.84 0.84 0.82 0.81 0.80 0.79 0.77 0.74 0.72 0.72 0.73 0.72 0.72 0.70 0.67 0.66 0.65 0.65 0.64 0.63 0.62 0.64 0.63 0.63 0.64 0.65 0.63 0.64 0.61 0.60 0.61 0.64 0.64 0.67
0.47 0.50 0.54 0.56 0.60 0.65 0.70 0.75 0.81 0.81 0.82 0.82 0.78 0.75 0.74 0.73 0.72 0.72 0.73 0.73 0.72 0.71 0.70 0.68 0.66 0.65 0.64 0.64 0.64 0.63 0.63 0.64 0.63 0.62 0.61 0.59 0.59 0.60 0.64 0.66 0.66 0.65 0.62
0.48 0.51 0.53 0.56 0.60 0.64 0.66 0.69 0.73 0.77 0.77 0.76 0.74 0.73 0.73 0.74 0.74 0.73 0.73 0.72 0.72 0.70 0.69 0.68 0.67 0.66 0.66 0.65 0.65 0.65 0.66 0.66 0.66 0.66 0.66 0.65 0.66 0.66 0.63 0.58 0.54 0.52 0.49
0.45 0.53 0.55 0.56 0.60 0.64 0.67 0.69 0.68 0.69 0.70 0.71 0.72 0.72 0.74 0.75 0.74 0.72 0.73 0.72 0.72 0.71 0.70 0.69 0.69 0.68 0.66 0.66 0.66 0.68 0.68 0.68 0.68 0.68 0.67 0.67 0.62 0.52 0.47 0.42 0.37 0.36 0.34
0.47 0.54 0.58 0.60 0.61 0.61 0.63 0.65 0.67 0.69 0.70 0.68 0.69 0.72 0.74 0.74 0.74 0.74 0.72 0.72 0.71 0.70 0.69 0.68 0.67 0.66 0.66 0.70 0.71 0.71 0.70 0.68 0.67 0.63 0.50 0.39 0.31 0.30 0.28 0.29 0.29 0.28 0.27
0.50 0.57 0.60 0.63 0.66 0.67 0.67 0.65 0.67 0.69 0.68 0.70 0.71 0.73 0.73 0.72 0.72 0.73 0.72 0.71 0.70 0.70 0.68 0.68 0.68 0.68 0.69 0.71 0.71 0.70 0.68 0.61 0.46 0.35 0.31 0.28 0.28 0.29 0.29 0.30 0.31 0.32 0.31
0.55 0.56 0.61 0.67 0.70 0.74 0.71 0.71 0.69 0.67 0.67 0.69 0.70 0.71 0.70 0.71 0.73 0.73 0.72 0.73 0.72 0.71 0.70 0.69 0.70 0.70 0.70 0.67 0.60 0.47 0.39 0.34 0.31 0.31 0.31 0.32 0.34 0.32 0.29 0.29 0.30 0.32 0.34
0.54 0.55 0.58 0.67 0.73 0.74 0.74 0.72 0.70 0.68 0.70 0.71 0.71 0.72 0.73 0.73 0.72 0.71 0.71 0.72 0.72 0.72 0.72 0.72 0.70 0.67 0.59 0.50 0.41 0.36 0.33 0.30 0.31 0.32 0.33 0.33 0.33 0.34 0.32 0.32 0.30 0.30 0.32
0.51 0.56 0.65 0.72 0.73 0.73 0.71 0.68 0.67 0.66 0.66 0.69 0.72 0.74 0.74 0.72 0.71 0.71 0.71 0.72 0.72 0.72 0.72 0.71 0.66 0.60 0.49 0.41 0.36 0.32 0.30 0.29 0.29 0.30 0.31 0.31 0.34 0.33 0.34 0.33 0.31 0.30 0.33
0.55 0.62 0.67 0.67 0.71 0.71 0.68 0.65 0.66 0.64 0.68 0.69 0.71 0.72 0.74 0.73 0.73 0.73 0.72 0.71 0.71 0.71 0.69 0.66 0.61 0.54 0.45 0.39 0.34 0.30 0.28 0.28 0.28 0.28 0.29 0.30 0.32 0.33 0.35 0.33 0.32 0.33 0.35
0.52 0.60 0.62 0.65 0.67 0.67 0.67 0.66 0.64 0.68 0.70 0.70 0.72 0.73 0.73 0.74 0.75 0.74 0.72 0.71 0.70 0.68 0.67 0.64 0.56 0.48 0.41 0.38 0.35 0.32 0.31 0.30 0.27 0.27 0.28 0.31 0.31 0.31 0.32 0.31 0.32 0.35 0.37
0.57 0.60 0.63 0.64 0.66 0.69 0.68 0.66 0.69 0.73 0.71 0.69 0.72 0.74 0.74 0.75 0.77 0.74 0.71 0.68 0.67 0.65 0.63 0.57 0.48 0.38 0.34 0.32 0.33 0.34 0.33 0.31 0.28 0.27 0.28 0.30 0.29 0.29 0.28 0.29 0.33 0.36 0.36
0.60 0.62 0.62 0.62 0.63 0.67 0.69 0.70 0.71 0.72 0.72 0.73 0.78 0.75 0.72 0.72 0.72 0.73 0.73 0.68 0.65 0.64 0.59 0.50 0.39 0.33 0.28 0.26 0.27 0.30 0.31 0.31 0.31 0.29 0.29 0.29 0.29 0.29 0.29 0.29 0.31 0.33 0.34
0.67 0.67 0.66 0.64 0.64 0.67 0.68 0.72 0.74 0.74 0.73 0.74 0.75 0.75 0.73 0.73 0.72 0.71 0.70 0.69 0.70 0.67 0.55 0.40 0.33 0.30 0.28 0.27 0.28 0.28 0.28 0.29 0.29 0.29 0.30 0.29 0.29 0.28 0.28 0.29 0.30 0.33 0.34
0.73 0.73 0.72 0.71 0.71 0.73 0.75 0.76 0.78 0.77 0.76 0.75 0.77 0.76 0.74 0.74 0.72 0.70 0.70 0.72 0.70 0.67 0.59 0.47 0.40 0.36 0.34 0.33 0.32 0.31 0.30 0.31 0.30 0.30 0.28 0.28 0.29 0.29 0.29 0.29 0.30 0.32 0.34
Wind_Speed
32 31 30 30 29 30 29 28 27 26 25 25 25 25 24 24 24 24 23 23 23 23 24 24 24 24 25 25 26 27 28 28 29 30 31 31 30 30 31 30 30 29 29
35 33 31 31 31 31 31 30 29 28 28 27 26 25 25 25 24 24 25 25 25 25 26 26 26 27 28 28 29 30 30 31 30 30 31 29 30 30 30 27 26 27 28
37 36 34 32 32 32 31 30 29 28 29 28 27 26 25 25 25 26 27 26 27 27 28 29 29 30 30 31 31 32 32 32 31 31 30 29 29 28 26 26 27 27 28
39 36 35 34 34 33 32 31 30 29 28 28 28 28 27 28 27 27 28 28 28 29 29 30 30 31 32 32 33 33 33 33 33 32 31 32 31 29 29 28 27 28 29
43 40 37 35 35 34 33 33 32 31 30 30 30 29 30 29 29 29 30 30 30 30 31 32 32 32 32 33 33 33 33 33 33 32 31 31 31 30 29 30 29 29 27
40 41 40 37 36 35 35 35 34 33 32 32 31 31 31 31 31 31 31 32 32 32 32 32 32 32 32 31 31 31 32 32 32 32 31 30 28 28 29 29 29 29 29
36 40 40 40 37 36 36 36 35 35 35 34 33 32 32 33 33 33 33 33 33 33 33 33 32 32 32 32 32 32 32 32 32 31 30 30 30 30 30 30 29 29 28
32 35 38 40 39 37 36 36 36 35 34 34 33 33 33 33 33 33 33 33 33 33 33 33 33 33 33 33 33 33 33 32 31 30 30 29 29 28 29 28 28 27 27
26 29 34 36 39 37 36 35 34 33 32 32 32 32 32 32 32 32 32 31 32 32 33 32 32 32 33 33 32 31 31 30 29 29 28 28 28 28 28 28 27 26 24
25 26 33 34 34 36 35 35 34 33 33 32 31 30 30 30 30 30 30 31 31 31 31 32 32 32 32 31 31 30 30 29 29 28 28 27 28 27 27 26 25 25 25
21 24 26 28 33 36 36 35 35 34 32 32 32 31 31 31 31 31 31 31 31 31 31 31 31 31 31 30 30 29 29 28 28 28 27 27 27 26 25 24 24 23 23
15 20 23 25 28 31 32 33 34 33 32 32 31 31 31 31 31 31 31 31 31 31 31 30 30 30 30 29 29 28 28 27 26 26 26 25 24 23 22 22 21 21 22
9 12 17 22 25 27 29 31 31 30 31 30 29 29 29 29 30 30 31 31 31 31 31 31 30 30 29 29 28 27 26 26 25 24 23 22 21 20 19 19 19 18 18
13 13 14 17 19 22 24 26 28 29 29 29 29 30 30 30 30 30 30 30 30 31 31 30 30 30 29 28 27 26 25 24 23 21 20 19 18 17 16 15 15 15 16
18 18 16 16 17 19 21 23 24 25 27 28 28 28 29 29 30 30 31 31 31 31 31 31 30 29 28 27 25 24 23 22 20 19 17 16 15 14 14 14 14 15 16
22 22 21 20 19 20 22 22 23 24 25 25 26 27 28 28 29 30 30 30 30 30 30 29 28 26 25 24 23 22 21 19 17 16 15 14 13 13 13 13 13 14 15
24 23 23 23 22 22 22 22 23 23 24 25 26 26 27 28 28 29 29 28 28 28 27 26 25 25 23 22 21 19 18 17 15 14 13 12 13 13 12 12 13 14 14
24 26 26 25 24 23 22 22 22 22 22 23 24 25 25 26 26 26 26 26 26 26 25 24 23 22 21 20 18 17 15 14 13 13 12 13 12 12 12 12 13 14 15
24 24 26 26 24 23 21 21 21 21 21 22 23 23 23 23 23 23 23 24 23 23 22 22 22 21 19 18 17 15 14 13 13 13 13 12 12 12 12 12 13 14 15
22 21 20 20 21 21 20 19 20 20 20 20 21 21 21 22 22 22 22 21 21 21 20 20 19 19 18 17 16 15 14 14 14 14 13 13 12 12 13 13 14 15 15
18 17 18 19 19 20 20 20 20 20 19 19 19 19 20 20 20 20 20 20 20 19 19 18 18 18 17 17 16 16 15 15 15 14 14 14 14 14 14 15 16 16 17
16 17 18 18 19 19 20 20 20 19 19 19 19 18 18 18 19 18 18 18 17 17 17 17 18 18 17 17 17 16 16 15 15 15 15 15 15 15 16 16 17 18 18
14 15 17 18 18 19 20 20 20 20 20 19 19 18 18 19 18 17 17 17 17 16 16 16 16 16 17 17 18 17 17 17 17 17 17 17 16 17 17 18 18 19 19
13 14 16 17 18 19 20 21 21 21 21 21 21 19 18 17 17 17 17 17 17 17 17 17 18 18 18 19 19 19 19 19 19 19 19 18 18 18 19 19 20 20 21
14 15 16 17 18 19 19 20 20 20 20 20 20 19 19 18 18 18 18 18 18 19 18 19 19 19 20 20 21 21 21 21 21 20 20 20 20 20 20 20 21 22 22
15 15 16 17 17 19 19 19 20 20 20 21 21 20 19 19 18 18 19 20 20 20 21 21 21 22 22 22 22 23 23 23 22 22 22 22 22 22 22 22 23 23 24
Wind_Direction
222 223 224 224 224 223 223 224 224 225 227 229 232 236 240 244 249 253 257 260 264 267 270 273 276 278 280 282 284 287 288 290 292 294 295 295 296 297 298 298 298 299 300
224 225 224 225 226 225 225 227 229 230 231 234 237 240 243 247 252 254 258 262 265 268 271 273 276 278 280 282 285 286 288 289 291 293 296 296 297 297 297 298 299 300 300
227 226 226 227 226 227 228 229 229 231 232 235 239 243 246 249 254 258 261 264 267 269 272 274 276 278 280 282 284 286 287 288 290 290 292 295 296 299 296 297 298 298 299
229 226 227 228 227 227 227 228 230 232 235 238 241 245 250 253 255 260 262 265 268 270 273 275 277 279 281 282 284 285 286 286 288 288 288 289 293 294 296 295 297 297 298
228 227 227 228 227 227 228 229 231 235 239 242 246 250 253 256 259 261 264 266 269 271 274 276 278 280 281 283 284 285 286 286 287 287 289 289 289 288 291 294 295 295 295
229 228 228 227 228 229 230 232 234 237 241 244 248 251 253 257 260 263 265 267 270 272 275 277 278 280 281 283 285 286 286 286 287 288 287 286 288 289 290 290 293 293 294
231 227 227 226 228 230 232 234 237 240 244 247 250 252 256 259 262 264 266 269 270 272 274 276 278 279 281 283 284 285 286 287 287 286 285 285 285 288 288 290 291 291 293
231 229 229 228 229 231 233 236 238 241 244 246 250 255 258 261 263 265 267 268 270 272 274 276 277 279 280 282 283 284 285 286 286 286 286 285 287 287 289 288 290 290 290
234 231 228 228 229 232 235 236 237 239 242 246 251 255 258 261 263 265 267 268 270 272 274 275 276 279 281 282 283 283 283 284 285 285 285 285 286 287 287 287 288 288 289
234 233 231 231 230 231 234 235 237 240 245 248 252 255 258 261 262 264 266 269 271 273 274 275 277 279 280 282 282 282 283 283 283 283 284 285 286 286 286 286 286 286 287
235 234 231 231 231 233 235 237 239 241 244 248 253 256 258 261 263 265 267 270 271 273 275 276 277 278 280 281 282 282 282 281 282 282 283 284 284 284 284 285 285 286 287
242 236 232 232 233 233 234 236 238 240 245 249 252 256 258 261 263 265 267 269 271 273 274 276 277 278 279 280 280 281 281 281 281 282 282 282 282 282 283 284 286 287 289
258 241 234 235 233 233 234 234 237 240 243 248 251 254 258 261 263 265 268 269 270 272 273 275 276 277 277 278 278 279 280 280 280 281 281 281 280 281 282 285 287 290 291
262 248 240 236 234 234 236 237 239 242 245 248 251 255 258 262 264 266 267 269 270 271 272 273 274 275 275 275 276 277 277 277 278 278 278 279 278 279 281 285 289 291 292
260 249 246 243 239 237 237 238 240 243 246 250 253 255 260 263 265 267 268 269 270 271 271 272 273 272 272 272 272 273 273 273 273 274 273 273 274 278 282 284 290 293 295
259 248 246 246 246 243 241 241 242 245 248 252 255 258 262 264 267 269 269 269 270 270 270 270 270 270 269 269 268 269 269 267 266 266 265 267 271 277 282 287 293 297 299
254 249 245 250 249 247 244 244 244 248 251 254 257 259 263 266 268 268 268 269 268 268 267 267 265 264 266 265 265 264 262 259 258 257 258 264 271 277 280 287 292 299 303
258 250 250 251 249 246 244 245 247 250 254 256 259 262 265 267 269 268 268 268 269 267 266 264 262 262 261 260 257 254 252 250 250 254 259 265 270 276 281 287 294 299 303
255 257 252 249 243 239 241 245 248 252 255 258 261 263 266 267 269 269 269 267 266 265 262 259 258 257 254 250 247 246 244 246 250 256 260 264 269 274 282 289 295 300 304
252 254 246 238 233 235 240 245 247 252 257 260 261 265 266 266 268 269 268 267 265 262 259 257 252 249 246 242 241 242 246 250 252 255 259 262 268 274 281 288 295 300 305
247 244 237 235 235 237 242 247 250 253 258 261 263 265 267 268 270 270 269 265 263 260 257 251 247 243 241 241 241 244 248 250 253 256 258 262 269 275 281 287 294 300 302
244 239 236 236 238 241 244 249 253 255 258 260 263 265 267 269 272 269 266 262 258 256 252 247 244 241 240 241 241 245 248 253 256 258 260 265 271 276 281 287 292 297 300
244 240 237 238 242 245 248 252 254 255 257 259 260 263 267 269 268 266 262 259 255 252 247 243 240 240 241 243 244 248 252 255 259 260 262 266 272 276 282 286 290 294 298
248 246 244 245 248 250 252 255 255 255 256 257 259 261 264 266 266 264 260 256 251 248 247 246 246 246 246 247 250 253 255 257 259 262 264 267 272 276 281 286 289 292 296
252 251 252 253 254 255 255 255 254 254 256 256 255 257 262 264 264 263 260 256 253 249 250 249 249 249 250 252 254 256 257 258 259 262 265 268 272 276 281 285 288 291 294
256 255 256 258 258 255 256 256 255 254 255 255 254 256 259 261 263 264 261 255 254 253 253 253 253 254 255 257 257 258 258 258 259 261 265 269 272 276 280 284 288 290 292